Miscellaneous Local Product
Issued by NWS Hastings, NE

Home | Current Version | Previous Version | Graphics & Text | Print | Product List | Glossary On
Versions: 1 2 3 4 5 6 7 8 9 10 11 12 13 14 15 16 17 18 19 20 21 22 23 24 25 26 27 28 29 30 31 32 33 34 35 36 37 38 39 40 41 42 43 44 45 46 47 48 49 50
000
AXUS43 KGID 190202
MISGRI

GID CWA HOURLY WEATHER ROUNDUP
NATIONAL WEATHER SERVICE HASTINGS NE
900 PM CDT SAT APR 18 2015

NOTE: "FAIR" INDICATES FEW OR NO CLOUDS BELOW 12,000 FEET WITH NO
SIGNIFICANT WEATHER AND/OR OBSTRUCTIONS TO VISIBILITY.

...SOUTH CENTRAL NEBRASKA...

CITY           SKY/WX    TMP DP  RH WIND       PRES   REMARKS
GRAND ISLAND   TSTM      54  47  77 SW25G36   29.84R
HASTINGS       LGT RAIN  55  49  80 NW9       29.84R
KEARNEY        CLOUDY    54  46  76 SE14      29.84R
ORD            CLOUDY    62  53  72 SE6       29.77R
YORK           CLOUDY    63  57  82 SE12      29.81R
LEXINGTON      TSTM      54  50  86 S16       29.82R
HOLDREGE       CLOUDY    55  47  73 SE13      29.81R
HEBRON         LGT RAIN  56  52  87 S8        29.83R

...NEBRASKA PANHANDLE...

CITY           SKY/WX    TMP DP  RH WIND       PRES   REMARKS
CHADRON        CLOUDY    49  44  83 NW6       29.93S
ALLIANCE       CLOUDY    49  43  80 N17       29.89R
SCOTTSBLUFF    CLOUDY    49  32  52 W9        29.92R
SIDNEY         CLOUDY    45  40  82 N7        29.88S

...WESTERN AND NORTH CENTRAL NEBRASKA...

CITY           SKY/WX    TMP DP  RH WIND       PRES   REMARKS
VALENTINE      CLOUDY    55  50  83 N9        29.85R
AINSWORTH      CLOUDY    57  53  86 NE7       29.82R
ONEILL         CLOUDY    58  56  93 N6        29.81S
BROKEN BOW     CLOUDY    60  52  74 NE6       29.77S
IMPERIAL       CLOUDY    51  43  74 NW14      29.81R
NORTH PLATTE   TSTM      52  45  77 SW13G23   29.82R
MCCOOK         CLOUDY    55  45  68 SE7G24    29.77S

...EASTERN NEBRASKA...

CITY           SKY/WX    TMP DP  RH WIND       PRES   REMARKS
NORFOLK        NOT AVBL
SO SIOUX CITY  CLOUDY    59  55  87 SE7       29.82R
TEKAMAH        CLOUDY    59  55  87 S12       29.82S
COLUMBUS       CLOUDY    61  54  77 SE12      29.82S
ALBION         CLOUDY    60  55  83 SE8       29.79S
OMAHA EPPLEY   CLOUDY    58  56  93 SE8       29.83S
OFFUTT AFB     CLOUDY    59  57  91 SE7       29.83S
MILLARD        CLOUDY    60  57  88 SE6       29.83S
LINCOLN        MOCLDY    61  56  83 SE13      29.82F
NEBRASKA CITY  MOCLDY    59  58  97 SE6       29.84S
BEATRICE       LGT RAIN  62  57  83 S6        29.82R
FALLS CITY     PTCLDY    57  55  93 CALM      29.82F

...NORTHERN KANSAS...

CITY           SKY/WX    TMP DP  RH WIND       PRES   REMARKS
GOODLAND       MOCLDY    48  44  86 N12       29.81R
HILL CITY      CLOUDY    54  48  80 E7        29.79R
NORTON         CLEAR     54  46  76 E5        29.78R
PHILLIPSBURG   CLOUDY    57  50  77 S9        29.82R
SMITH CENTER   MOCLDY    55  46  71 E13       29.78S
BELOIT         CLOUDY    54  48  82 E10       29.81F
HAYS           CLOUDY    54  43  66 SE7       29.79R
RUSSELL        CLOUDY    53  48  83 SE15      29.76R
CONCORDIA      LGT RAIN  55  54  96 SE6       29.87R FOG
SALINA         RAIN      56  51  84 E17       29.81F
TOPEKA         CLEAR     61  58  90 E7        29.83S



USA.gov is the U.S. government's official web portal to all federal, state and local government web resources and services.